EDT,Max TemperatureF,Mean TemperatureF,Min TemperatureF,Max Dew PointF,MeanDew PointF,Min DewpointF,Max Humidity, Mean Humidity, Min Humidity, Max Sea Level PressureIn, Mean Sea Level PressureIn, Min Sea Level PressureIn, Max VisibilityMiles, Mean VisibilityMiles, Min VisibilityMiles, Max Wind SpeedMPH, Mean Wind SpeedMPH, Max Gust SpeedMPH,PrecipitationIn, CloudCover, Events, WindDirDegrees
2012-8-1,82,76,71,74,72,68,100,88,60,29.95,29.92,29.88,10,8,2,12,4,,0.27,5,Rain-Thunderstorm,194
2012-8-2,90,79,69,75,70,67,100,82,52,30.02,29.94,29.89,10,7,1,10,2,,0.01,1,Thunderstorm,172
2012-8-3,89,79,70,74,70,64,97,78,49,30.12,30.06,29.99,10,8,0,31,6,44,0.69,3,Rain-Thunderstorm,223
2012-8-4,89,80,72,76,73,71,97,77,57,30.24,30.18,30.10,10,10,5,13,3,,0.00,1,Rain,180
2012-8-5,89,82,75,76,73,70,96,78,59,30.25,30.21,30.15,10,9,0,14,4,28,0.23,1,Rain-Thunderstorm,173
2012-8-6,90,82,75,76,74,72,94,79,59,30.17,30.12,30.05,10,9,1,15,4,22,0.28,3,Rain-Thunderstorm,218
2012-8-7,84,78,73,75,73,71,94,89,72,30.08,30.04,30.01,10,9,3,9,4,20,0.32,4,Rain-Thunderstorm,212
2012-8-8,82,78,73,74,72,71,97,86,69,30.05,30.01,29.95,10,9,2,8,2,,0.37,3,Rain,202
2012-8-9,87,80,72,75,72,70,97,81,61,30.02,29.97,29.91,10,10,9,12,4,,0.00,2,,196
2012-8-10,87,81,75,76,73,70,88,79,61,29.95,29.90,29.86,10,10,7,16,8,24,0.05,3,Rain-Thunderstorm,209
2012-8-11,84,78,71,75,73,70,94,85,70,30.00,29.95,29.91,10,8,0,28,10,34,1.41,5,Fog-Rain-Thunderstorm,195
2012-8-12,84,77,70,74,71,69,97,88,67,30.04,30.00,29.97,10,9,1,13,4,,0.35,3,Rain-Thunderstorm,205
2012-8-13,88,78,69,74,72,69,100,88,57,30.06,30.01,29.97,10,5,0,12,2,,0.00,1,Fog,199
2012-8-14,91,81,72,74,71,62,100,81,39,29.99,29.96,29.91,10,6,0,14,5,17,0.01,2,Fog,229
2012-8-15,91,82,73,75,72,70,93,77,55,29.96,29.92,29.87,10,10,10,14,7,18,0.01,3,Rain-Thunderstorm,211
2012-8-16,88,79,72,73,72,69,97,80,57,30.02,29.98,29.93,10,9,6,9,5,,0.00,2,,256
2012-8-17,89,78,68,74,71,66,97,78,53,30.00,29.93,29.87,10,8,2,14,3,,0.01,1,,188
2012-8-18,89,80,72,75,72,69,94,82,53,29.91,29.88,29.83,10,9,6,9,4,,0.02,2,Rain-Thunderstorm,246
2012-8-19,87,78,71,75,72,69,100,89,65,29.91,29.87,29.82,10,8,1,12,5,,0.49,4,Rain-Thunderstorm,220
2012-8-20,82,76,71,72,70,66,100,85,60,29.98,29.90,29.85,10,8,0,21,5,29,0.43,5,Fog-Rain,299
2012-8-21,81,76,73,72,70,68,93,84,69,30.10,30.03,29.97,10,10,6,8,3,,0.06,5,Rain,115
2012-8-22,84,78,72,72,70,68,94,85,61,30.10,30.07,30.03,10,8,1,9,5,,0.43,6,Rain-Thunderstorm,48
2012-8-23,84,77,70,72,70,68,96,89,63,30.13,30.09,30.07,10,8,2,15,5,,0.59,6,Rain-Thunderstorm,38
2012-8-24,73,71,69,70,68,64,97,91,73,30.13,30.08,30.04,10,8,3,16,7,22,0.50,7,Rain-Thunderstorm,3
2012-8-25,77,70,66,68,67,64,97,88,71,30.14,30.07,30.02,10,8,2,9,5,,0.09,6,,293
2012-8-26,87,76,64,73,68,63,100,84,57,30.18,30.14,30.10,10,8,0,13,3,18,0.01,2,Thunderstorm,48
2012-8-27,89,80,73,76,73,70,94,83,63,30.14,30.09,30.05,10,10,10,16,5,,0.00,2,,100
2012-8-28,81,76,73,79,73,72,100,93,81,30.06,30.02,29.96,10,7,1,13,3,28,0.94,6,Rain-Thunderstorm,225
2012-8-29,88,80,73,74,72,69,100,88,53,30.04,29.96,29.91,10,10,5,9,4,,0.03,5,Rain,284
2012-8-30,84,76,69,73,71,69,100,86,61,30.19,30.11,30.01,10,7,2,9,2,,0.00,2,,147
2012-8-31,90,78,66,74,69,66,100,86,51,30.25,30.18,30.12,10,5,0,9,1,,0.01,3,Fog,215